STARLINK-5844, 57068

Orbit data source: Space-Track

STARLINK-5844, 57068 is a payload satellite owned by SpaceX/Seattle (US) in LEO that was launched on Thu, 22 Jun 2023 UTC via an FALCON 9 launch vehicle from the Air Force Western Test Range (AFWTR). Payload-class satellites include a variety of spacecraft equipped with specific instruments for various scientific and technological missions. These include communications satellites like Starlink; space stations such as the ISS; scientific satellites like the Hubble; Earth observation satellites from companies like Planet Labs, Umbra, and HawkEye 360; GPS; miniature CubeSats for education and research; and military/defense satellites.

Loading next visibility...
Identifier
57068, 2023-088W
Orbit
LEO
Country
Flag of USUS
Related business
Manufacturer
SpaceX/Seattle
Mission
Operational Commercial Communications
Bus & Motor
STARLINK, Unknown motor
Mass
305 kg wet, ~290 kg dry
Launch date (UTC)
Icon of a cake. It is the launch day of the satellite!2023-06-22 (3 years ago)
Launch vehicle
FALCON 9
Launch site
Air Force Western Test Range (AFWTR)
Object type
Payload
Rocket body
Debris
Shape & HBR
Box + 1 Pan, 10.1 m
Radar Cross Section
11.087 m², Large (>1 m²)

Expand to show TLE details & history
Last TLE update: 3 days ago

TLE from 3 days ago
0 STARLINK-5844
1 57068U 23088W   26170.71355235  .00000465  00000-0  26446-4 0  9995
2 57068  43.0046 258.0612 0002010 292.8043  67.2597 15.27580336165895
Epoch: 2026-06-19T17:07Z
TLE epoch observation values (Epoch: 2026-06-19T17:07:30.923Z)
Latitude
0.00005°
Longitude
93.24383°
Altitude
482.291 km
Speed
7.626 km/s
True Right ascension
17h 12m 14s
True Declination
0° 00' 00"
Sunlit
Object was in full shadow at epoch
Visualization orbit readout
Latitude
Unknown
Longitude
Unknown
Altitude
Unknown
Speed
Unknown
Apparent Right ascension
Unknown
Apparent Declination
Unknown
Sunlit
N/A
Visualization observer readout
Local Sidereal Time
21:33:37
Azimuth
Unknown
Elevation
Unknown
Doppler factor
Unknown
Orbital elements
Apogee altitude
486.372 km
Perigee altitude
483.613 km
Semi-major axis
6,863.129 km
Eccentricity
0.0002
Inclination
43.0046°
RAAN
258.0612°
Arg. of periapsis
292.8043°
True anomaly
67.28094°
Mean anomaly
67.2597°
Eccentric anomaly
67.27032°
Mean motion
3.81733 °/min
Orbital period
94.31 mins
BSTAR
0.000026446
Loading maneuver chart data...
Computing Atmospheric mass density...
Loading historical data...
Loading historical data...
Loading historical data...
Loading historical data...
Loading historical data...
Loading historical data...
Loading historical data...

Documentation

Showing up to 5 results
|